GFSMA_850_dewp_057.txt.gz
Dewpoint
7 8 8 8 8 8 7 6 7 6 6 6 7 7 7 7 7 7 7 6 6 6 4 5 -3 -5 -6 -6 -6 -6 -7 -7 -8 -9 -10 -12 -14 -14 -14 -15 -15 -16 -17
7 8 9 9 8 7 7 6 6 6 5 6 7 7 7 7 7 7 7 6 6 6 7 5 0 -2 -3 -5 -5 -5 -5 -5 -5 -7 -8 -9 -11 -11 -11 -12 -12 -13 -14
8 9 9 8 7 7 7 6 6 5 4 5 6 7 7 7 7 7 7 8 6 6 6 7 6 2 -1 -2 -4 -4 -4 -4 -4 -5 -6 -7 -8 -8 -8 -8 -9 -9 -10
8 8 7 6 6 7 6 5 5 4 4 4 5 6 6 6 7 7 7 8 7 7 6 6 6 5 1 -1 -3 -3 -3 -2 -3 -3 -4 -4 -5 -6 -6 -6 -6 -7 -7
7 6 5 4 4 5 4 5 5 4 3 3 4 5 5 5 6 5 6 7 7 7 6 5 4 5 4 1 -1 -2 -2 -1 -1 -2 -2 -3 -4 -4 -5 -5 -5 -5 -5
4 3 3 4 4 3 4 4 4 4 3 3 2 3 3 3 3 3 4 5 6 7 7 8 6 4 4 4 -0 -1 -2 -1 -0 -0 -1 -2 -3 -3 -3 -4 -4 -5 -5
2 1 2 0 4 5 4 4 4 4 3 3 1 2 3 3 3 3 3 3 4 6 6 6 7 6 5 5 4 0 -1 0 -0 0 0 -1 -2 -2 -2 -3 -3 -3 -4
1 1 0 1 4 5 6 6 5 5 3 2 1 1 2 3 3 3 3 4 4 4 5 6 6 6 7 6 5 5 1 0 4 4 4 2 1 -1 -1 -2 -2 -2 -2
6 2 4 6 2 6 7 8 8 7 6 5 3 4 3 3 4 4 4 4 4 4 4 4 6 6 6 6 6 6 5 3 -0 3 4 3 3 2 2 1 0 0 0
3 3 5 7 6 6 7 8 8 8 7 6 7 5 6 7 6 5 5 5 5 4 4 4 4 5 6 6 6 6 5 4 2 0 -1 1 2 3 2 2 3 2 2
4 5 6 7 8 7 7 7 8 8 8 6 7 7 7 7 7 8 7 6 6 6 5 5 4 4 5 6 6 6 5 5 3 1 0 -0 -0 -0 1 2 3 2 3
6 7 8 8 7 7 7 7 7 7 7 7 4 7 7 8 7 7 7 7 7 7 6 6 6 6 7 5 5 5 5 5 4 1 0 1 2 2 -0 -1 1 2 2
8 7 7 7 6 5 4 6 6 6 7 6 5 7 6 7 8 7 7 7 7 7 6 6 6 6 7 6 5 5 5 5 3 2 1 2 3 2 2 1 -0 -1 -1
4 4 6 7 5 5 4 4 5 7 5 5 5 5 6 5 7 8 7 8 8 7 7 6 5 5 5 6 6 6 6 5 3 2 2 3 2 1 -0 0 1 -1 -2
4 3 4 5 5 4 3 5 6 7 7 6 5 5 4 5 6 7 8 8 7 8 7 7 5 4 4 6 5 6 6 6 4 4 3 2 1 1 2 1 1 0 1
5 6 3 4 4 4 5 5 5 5 6 6 6 6 6 6 6 8 8 7 7 7 8 7 7 6 5 5 6 7 6 5 5 4 3 2 2 1 0 -2 -2 -1 -2
7 7 6 5 5 6 6 7 6 5 6 6 6 7 7 7 7 7 7 7 7 7 7 6 6 6 6 6 6 6 5 5 4 3 3 2 1 -0 -2 -4 -3 -2 -2
8 8 7 6 6 6 7 7 7 7 7 7 7 7 7 6 7 7 6 6 5 4 7 7 6 7 6 6 5 5 5 3 3 3 2 1 -0 -2 -3 -9 -9 -13 -21
9 8 8 8 7 7 7 7 7 7 7 7 7 8 8 7 8 7 6 6 6 4 5 7 7 6 5 5 4 4 3 3 3 2 1 -0 -1 -2 -9 -18 -27 -34 -33
9 9 9 8 8 8 8 8 8 8 7 7 8 8 7 9 6 6 7 8 7 7 7 7 6 5 5 4 3 3 3 2 2 1 -1 -4 -8 -14 -24 -33 -34 -32 -31
8 8 8 8 8 8 8 8 8 7 7 7 7 8 7 7 7 9 8 8 6 7 7 7 5 4 4 3 3 3 2 1 -0 -2 -4 -7 -11 -10 -17 -24 -29 -26 -23
9 8 8 8 8 8 8 7 7 7 7 7 7 8 8 8 7 8 9 8 7 8 7 6 4 4 3 3 2 1 0 -1 -4 -6 -11 -11 -10 -11 -15 -20 -15 -11 -13
9 8 8 8 8 8 8 7 7 7 8 8 8 8 7 7 9 8 8 8 7 7 5 4 3 3 3 1 0 -1 -2 -4 -7 -11 -11 -11 -11 -15 -16 -13 -12 -13 -16
9 8 9 8 8 8 8 8 8 8 8 8 8 8 8 9 8 8 7 6 4 4 3 2 2 1 -0 -1 -2 -3 -5 -10 -11 -16 -19 -14 -12 -13 -14 -14 -14 -13 -14
9 9 9 9 9 9 8 8 8 9 9 9 8 8 7 7 7 7 5 4 3 2 1 1 -0 -2 -2 -3 -5 -10 -15 -19 -14 -11 -12 -13 -13 -14 -13 -12 -13 -13 -13
9 9 9 9 9 9 9 9 9 9 9 8 8 7 6 5 5 4 3 2 2 0 -1 -2 -3 -3 -5 -10 -14 -20 -31 -24 -16 -12 -14 -12 -12 -13 -12 -12 -13 -13 -14

GFSMA_850_dewp_060.txt.gz
Dewpoint
7 6 7 6 2 1 -2 2 6 5 5 6 7 6 7 6 6 5 2 4 2 0 -4 -7 -7 -7 -6 -6 -6 -7 -7 -7 -8 -9 -10 -11 -11 -12 -13 -13 -14 -14 -15
6 7 6 6 4 3 -0 7 7 6 6 6 7 7 7 7 6 4 2 5 3 2 0 -3 -4 -4 -4 -4 -4 -4 -4 -5 -5 -6 -7 -8 -9 -9 -9 -9 -10 -10 -12
6 5 6 6 6 7 5 6 7 6 6 6 7 7 7 7 7 5 5 1 4 5 6 3 2 -1 -2 -3 -3 -3 -2 -2 -2 -3 -4 -5 -6 -6 -6 -7 -7 -7 -8
7 4 7 7 6 8 6 7 6 5 5 6 7 7 7 7 7 7 7 6 4 2 5 6 5 3 0 -2 -2 -2 -2 -1 -1 -1 -1 -2 -4 -5 -5 -5 -5 -5 -6
8 7 6 7 6 8 7 7 5 4 4 5 6 6 6 7 6 7 7 7 7 6 5 4 3 3 2 1 -1 -1 -2 -2 -1 -0 -1 -2 -3 -4 -4 -4 -4 -4 -4
8 9 8 7 7 7 6 5 5 4 4 4 5 5 5 5 5 6 6 7 7 7 7 7 6 6 5 2 1 1 -0 -1 -1 -0 -0 -1 -2 -2 -3 -3 -3 -3 -3
7 7 5 4 5 5 5 5 5 4 4 3 4 4 4 4 4 3 4 6 5 7 7 7 7 7 5 4 4 3 3 1 0 -0 0 1 0 -1 -1 -2 -2 -2 -2
7 6 4 4 4 4 4 4 4 4 4 3 3 2 3 3 3 3 3 2 2 4 5 6 7 5 5 4 6 6 5 5 3 4 1 1 1 1 1 0 -1 -1 -2
5 4 2 1 1 4 4 5 4 4 3 3 3 1 2 3 3 2 2 2 3 3 4 5 5 6 6 6 6 6 5 6 5 4 4 4 3 2 2 3 2 2 1
3 2 2 1 -1 -0 1 6 6 5 5 4 3 1 3 5 6 6 4 4 4 4 4 4 4 4 4 5 6 6 5 6 5 5 4 2 4 3 3 3 4 3 3
4 3 3 3 1 1 4 8 7 6 6 7 6 4 3 5 6 6 6 6 5 5 4 4 4 4 4 4 5 6 6 5 5 5 5 4 1 2 2 3 3 4 4
4 2 2 3 7 5 4 7 8 7 6 6 7 8 7 5 3 5 6 6 7 6 6 6 6 6 6 5 5 5 6 5 5 4 5 5 4 1 -0 -1 0 2 3
4 4 4 3 4 6 7 6 7 6 6 6 5 5 6 5 4 5 6 6 6 6 7 7 7 5 5 5 5 6 6 6 6 5 5 5 4 2 0 1 2 2 2
6 5 5 3 3 8 7 7 5 5 5 5 5 5 6 5 4 4 5 5 7 7 7 6 6 6 5 5 5 5 6 6 5 5 5 6 5 3 1 2 3 0 -0
4 6 5 4 5 6 7 7 4 4 4 6 5 4 5 5 4 4 5 4 5 7 8 7 7 6 6 6 6 6 6 6 6 5 6 6 4 3 3 2 1 1 1
4 5 5 4 5 7 7 7 4 4 4 4 5 6 5 5 4 4 4 5 6 7 8 6 6 7 7 7 7 7 6 6 5 6 7 6 4 3 2 3 2 1 1
7 7 6 5 5 7 7 7 7 6 4 5 5 6 6 5 5 6 6 6 6 6 7 7 6 5 5 5 5 5 5 6 6 6 6 5 4 2 3 2 1 -0 -2
7 6 6 6 5 4 4 4 6 6 6 6 7 7 6 7 7 7 8 8 7 5 7 7 6 5 4 5 6 6 6 6 6 6 5 5 3 3 2 2 0 -2 -2
8 8 7 6 7 5 4 4 5 6 6 7 6 7 7 7 7 7 7 7 7 6 7 7 7 6 5 6 7 7 6 5 5 5 4 3 3 2 1 1 -1 -3 -9
8 8 8 8 8 7 7 7 7 7 7 7 7 7 7 7 7 7 7 8 8 8 6 7 8 7 6 6 7 6 5 5 4 3 2 3 2 0 -1 -2 -7 -16 -25
9 9 10 9 9 9 8 7 7 8 8 8 8 8 8 8 8 8 7 8 8 8 7 8 7 7 7 7 7 5 4 4 2 2 2 1 -1 -4 -3 -7 -15 -20 -25
9 10 10 10 10 9 8 8 8 8 8 8 8 8 8 8 8 7 8 8 8 8 8 8 7 7 7 7 5 4 3 2 1 1 0 -1 -1 -5 -11 -11 -11 -14 -14
10 10 10 10 10 9 9 9 9 9 9 9 8 8 8 8 7 7 9 9 8 8 8 7 6 6 5 3 3 2 1 0 -1 -2 -5 -10 -10 -11 -12 -14 -15 -16 -13
10 10 10 10 9 9 9 9 9 9 9 8 8 8 9 8 8 8 9 9 8 7 6 5 4 3 3 2 1 0 -1 -2 -3 -5 -5 -6 -13 -19 -20 -16 -14 -14 -14
10 10 10 10 10 9 9 9 9 9 8 8 8 8 8 9 9 8 8 8 6 5 3 1 1 0 0 -0 -0 -2 -3 -4 -7 -10 -14 -18 -17 -16 -16 -13 -13 -13 -13
10 10 10 10 9 9 9 8 9 9 8 8 8 8 8 8 8 7 6 4 4 1 -0 -2 -3 -3 -3 -3 -3 -4 -5 -7 -11 -13 -16 -15 -13 -11 -10 -11 -12 -13 -12

GFSMA_850_dewp_066.txt.gz
Dewpoint
9 8 3 -2 -5 -7 -6 -1 3 6 6 7 7 6 6 6 5 -2 -6 -9 -9 -9 -9 -9 -9 -9 -9 -9 -10 -10 -11 -12 -13 -13 -13 -13 -13 -14 -14 -14 -15 -15 -15
8 8 5 1 -5 -7 -8 -4 1 5 6 7 7 6 6 6 6 3 -6 -7 -8 -8 -8 -9 -8 -8 -8 -7 -7 -7 -7 -7 -7 -8 -8 -9 -9 -10 -11 -11 -12 -12 -13
7 9 7 2 -2 -9 -10 -9 1 5 6 7 7 7 6 6 6 4 -4 -5 -7 -8 -8 -7 -5 -5 -5 -4 -3 -3 -2 -3 -3 -3 -4 -4 -5 -6 -7 -7 -8 -8 -8
3 3 5 3 -2 -7 -12 -11 4 7 6 6 7 6 6 6 6 0 -2 -5 -5 -6 -6 -4 -4 -4 -3 -3 -2 -2 -1 -1 -1 -0 -0 -1 -2 -3 -5 -5 -5 -5 -5
6 5 8 3 -1 -6 -6 -7 6 6 4 6 7 7 6 7 7 5 5 -1 -1 -2 -3 -3 -2 -2 -2 -2 -2 -2 -1 -1 -0 0 0 0 -0 -1 -2 -3 -3 -3 -3
8 8 8 3 -1 -3 3 4 3 3 4 5 7 7 7 7 7 7 6 5 5 4 2 -0 0 1 -0 0 0 -0 -0 -1 -1 0 0 0 0 0 0 -0 -1 -1 -2
7 7 8 4 1 4 6 7 6 5 6 6 7 7 7 7 7 7 7 6 7 6 5 5 3 3 4 5 3 3 2 0 2 2 1 0 0 0 0 0 0 0 -0
8 6 5 6 3 1 5 7 6 6 6 5 5 6 7 7 7 7 6 6 6 6 6 6 4 4 4 5 4 3 3 3 4 4 4 3 1 1 1 1 1 1 1
7 6 5 7 5 6 5 7 6 5 5 6 5 5 6 6 6 6 6 5 4 4 5 4 4 3 4 4 4 4 3 3 4 5 5 4 4 4 2 1 1 1 1
7 7 8 8 6 7 7 7 7 5 4 5 6 6 4 5 4 4 5 4 4 3 3 2 2 2 2 4 4 4 3 3 3 4 5 5 5 5 4 4 3 2 2
7 9 9 9 7 8 8 7 6 5 4 5 6 1 3 5 2 2 3 2 3 3 3 3 3 2 3 3 3 3 4 4 4 4 4 4 5 5 5 5 5 4 3
8 8 8 8 8 7 6 7 4 5 5 4 1 2 4 4 2 3 5 6 5 5 4 4 3 4 4 4 4 4 4 4 4 5 4 5 5 6 6 6 6 6 5
7 8 6 7 8 7 6 5 5 4 4 2 2 1 3 3 3 2 2 2 3 4 5 4 5 5 4 5 6 6 6 5 6 5 5 5 5 6 7 7 7 6 6
5 5 7 7 7 5 4 3 3 3 1 2 2 3 2 3 3 3 3 4 6 6 5 6 5 5 5 5 5 5 4 5 6 6 6 5 4 6 7 7 7 6 6
6 6 5 5 5 3 1 2 3 4 2 1 3 5 4 5 6 6 6 6 6 4 4 4 4 4 4 3 3 3 3 4 5 6 6 6 6 6 6 6 7 6 6
4 4 4 4 3 3 0 2 1 2 3 5 6 5 4 4 6 6 5 5 5 4 4 3 4 4 3 3 3 4 4 5 6 6 6 5 6 6 6 6 6 6 6
6 5 4 3 2 2 2 1 2 3 2 5 5 5 4 5 5 6 5 5 5 5 5 5 5 4 4 3 3 4 5 5 5 7 7 5 5 5 5 6 6 6 6
7 5 4 4 3 2 3 2 2 2 4 5 6 6 6 6 6 5 4 4 4 4 5 5 4 4 4 4 5 6 6 6 5 4 6 6 5 5 6 6 6 6 6
8 8 6 4 3 3 3 3 3 4 4 3 3 3 3 5 5 5 5 4 4 4 5 5 5 5 6 6 6 7 7 7 7 4 4 6 7 6 6 6 6 5 5
9 8 8 8 8 7 6 4 3 3 3 4 4 4 4 4 3 5 6 5 5 6 5 6 7 7 8 8 8 8 8 7 7 7 5 7 7 6 6 6 5 4 2
6 8 9 9 8 8 8 7 6 5 4 5 4 4 5 4 3 4 6 6 6 7 7 7 8 8 8 8 8 8 8 8 8 8 7 7 7 6 5 4 2 2 1
8 7 7 9 9 7 7 8 8 8 8 7 7 7 7 6 5 4 5 7 7 8 8 8 8 8 8 7 8 8 8 8 7 7 6 5 4 2 1 1 1 -0 -0
9 9 8 8 9 8 5 6 7 8 8 8 7 7 7 6 6 6 7 7 8 8 8 8 8 8 8 8 8 8 8 8 6 5 3 2 1 0 0 -0 -1 -3 -5
10 9 9 9 9 8 8 7 7 8 8 8 8 8 8 8 8 7 7 7 8 8 8 8 8 8 8 8 8 7 6 5 2 1 1 0 -1 -1 -1 -2 -5 -5 -5
9 10 10 10 10 9 9 9 9 9 9 9 9 9 9 9 8 8 8 8 8 9 9 9 8 8 8 7 6 5 2 1 0 -1 -2 -1 -2 -2 -3 -3 -4 -4 -5
6 10 10 10 10 10 10 10 10 10 10 10 10 10 9 9 9 9 9 9 9 9 8 7 5 4 3 1 0 -0 -0 -1 -1 -3 -3 -3 -3 -4 -5 -6 -8 -7 -7

GFSMA_850_dewp_072.txt.gz
Dewpoint
9 9 9 9 8 8 9 9 9 8 7 7 7 6 4 3 -5 -4 3 7 7 8 8 7 2 -5 -11 -13 -14 -15 -16 -16 -16 -16 -16 -16 -16 -15 -15 -14 -14 -14 -15
10 10 9 8 8 8 9 9 8 7 6 7 7 6 6 5 2 -5 -0 4 6 8 7 5 -2 -7 -10 -12 -12 -12 -13 -13 -13 -13 -13 -13 -12 -12 -11 -11 -12 -13 -13
9 9 9 8 9 9 9 8 8 7 7 7 6 6 6 6 4 -2 -4 -5 4 2 2 -6 -8 -9 -9 -9 -8 -7 -8 -8 -8 -7 -6 -6 -6 -7 -7 -8 -9 -9 -9
9 9 9 8 9 8 9 8 7 7 7 6 7 6 6 6 5 3 -2 -5 -4 -3 -3 -6 -8 -7 -6 -5 -4 -4 -3 -3 -3 -2 -1 -1 -2 -2 -3 -4 -5 -6 -6
10 10 9 8 9 6 9 8 7 7 7 7 5 6 6 6 6 5 2 -2 -4 -5 -7 -7 -7 -5 -5 -4 -3 -2 -2 -1 -1 -1 -0 -0 -1 -1 -1 -1 -2 -4 -4
10 10 10 8 8 4 9 8 7 6 6 6 6 6 6 7 6 6 2 1 -0 -3 -6 -6 -5 -4 -4 -3 -3 -2 -2 -2 -1 -1 -0 -0 -0 -0 -0 -1 -1 -1 -1
10 10 9 9 5 1 3 5 6 6 6 7 7 7 7 7 7 6 3 2 0 0 -4 -5 -4 -3 -3 -2 -1 -1 -0 -0 -0 -1 -1 -0 -0 -0 0 0 -0 -0 -1
10 10 9 9 3 -0 2 3 4 5 6 7 7 7 8 7 7 7 6 5 3 2 1 0 -0 -1 1 2 2 3 4 4 3 3 2 2 2 2 1 1 1 0 0
8 8 9 9 3 -3 -3 1 4 4 6 7 7 7 7 7 7 7 7 7 7 6 6 6 5 5 4 4 3 4 4 5 5 5 5 4 4 4 4 4 4 4 3
10 9 8 8 7 -1 -4 -5 1 1 6 6 7 7 6 6 7 7 7 7 7 7 6 6 5 5 5 4 3 3 3 4 4 4 5 5 5 4 4 4 5 5 6
10 10 9 7 9 7 -1 -8 -8 -1 6 6 6 7 7 6 6 4 -1 -1 -0 3 2 1 3 3 3 2 2 2 1 1 2 3 4 4 4 5 5 4 4 5 5
10 10 9 9 8 8 3 -5 -5 -2 6 5 4 4 6 7 6 2 0 -1 1 3 3 2 3 3 2 2 3 3 3 3 3 3 4 4 4 4 5 4 4 5 5
9 9 10 9 8 9 6 -1 4 2 2 5 5 6 6 6 5 -0 1 2 3 2 4 3 3 4 4 4 4 3 3 4 4 4 4 5 5 5 5 5 5 5 5
8 9 9 9 8 8 8 6 1 5 5 5 5 6 6 5 5 3 2 3 2 2 4 4 3 2 2 1 3 2 3 3 3 4 4 3 3 3 4 4 5 6 6
8 8 9 9 9 8 9 8 7 5 6 6 6 7 6 5 5 4 3 2 3 3 4 3 3 2 2 3 4 3 3 3 3 3 4 3 3 3 3 4 4 5 6
8 9 9 9 9 8 8 8 8 7 7 7 7 8 7 6 6 6 3 4 4 4 4 4 3 2 4 5 4 4 4 3 4 4 4 4 4 4 4 4 5 5 6
9 9 9 9 9 8 8 9 9 8 7 6 7 7 7 5 5 4 2 3 3 3 5 4 5 5 5 5 5 4 3 3 3 3 3 3 4 4 5 5 6 6 6
8 8 9 9 8 8 7 7 7 8 8 8 7 6 6 5 5 3 3 3 2 2 5 5 4 5 5 4 5 5 4 3 3 3 3 4 4 4 5 6 6 7 7
7 8 8 8 9 8 8 7 7 7 7 7 6 5 5 5 4 4 5 5 2 2 4 5 5 5 5 5 4 5 4 4 4 6 5 5 5 6 6 6 7 7 7
7 7 7 7 7 7 8 8 7 7 7 7 6 5 5 4 4 3 3 3 3 3 3 6 7 6 5 4 5 4 4 3 3 5 5 5 6 6 6 7 7 7 7
8 7 7 7 7 8 8 8 8 8 6 6 6 5 4 4 3 3 3 3 3 3 4 6 7 6 6 6 6 4 6 5 5 6 5 6 6 6 7 7 7 7 7
9 9 9 9 9 9 8 8 8 8 8 8 7 6 5 5 4 3 3 3 4 6 6 6 6 6 6 7 7 7 7 7 7 7 6 6 6 6 7 7 7 7 6
8 8 8 8 8 8 8 9 9 9 8 8 8 8 8 8 7 7 7 7 7 7 6 6 7 7 7 7 7 7 7 7 7 7 7 7 7 6 6 5 5 4 4
8 8 8 8 8 8 8 8 8 8 8 8 8 8 8 8 8 8 8 8 8 8 8 8 8 8 7 7 7 8 8 8 7 7 7 6 5 3 1 1 -0 -1 -0
5 6 7 7 7 7 8 8 8 8 8 8 8 8 8 8 8 8 8 8 8 7 7 7 7 8 8 8 8 8 7 7 6 5 3 1 -0 -2 -2 -3 -4 -4 -4
1 2 2 3 3 4 5 5 6 6 7 7 7 7 7 7 7 8 8 7 8 7 7 7 6 6 4 2 5 5 4 3 1 -1 -2 -3 -4 -5 -6 -7 -7 -6 -6

GFSMA_850_dewp_075.txt.gz
Dewpoint
8 7 9 9 10 9 10 10 9 8 8 7 8 6 6 2 0 4 7 8 8 7 7 8 3 -3 -7 -1 -7 -14 -16 -17 -17 -17 -17 -16 -16 -15 -15 -14 -14 -14 -14
9 8 10 9 10 9 9 9 9 9 8 7 7 6 4 2 -1 4 6 7 8 7 7 7 6 1 -3 -9 -13 -15 -15 -15 -15 -15 -14 -14 -13 -13 -12 -12 -12 -12 -12
10 9 10 9 10 8 9 9 9 9 7 8 7 5 5 4 1 1 4 7 7 8 7 7 3 3 1 -7 -10 -11 -12 -12 -11 -11 -10 -9 -7 -7 -7 -8 -9 -9 -10
10 11 10 9 10 8 10 9 10 8 7 7 7 6 6 5 3 -1 0 5 7 7 7 5 1 -0 -3 -5 -8 -7 -7 -6 -5 -4 -3 -2 -2 -2 -3 -4 -5 -6 -7
11 10 10 9 9 7 10 9 9 7 7 7 6 6 6 6 5 3 -1 1 5 6 6 3 -3 -6 -2 -4 -5 -3 -3 -2 -2 -1 -1 -1 -1 -1 -2 -2 -3 -3 -4
10 10 10 9 9 9 10 9 8 7 7 7 7 6 6 6 6 5 4 2 2 2 2 3 2 -0 -4 -4 -3 -3 -2 -2 -1 -1 -1 -0 -0 -0 -1 -1 -1 -1 -2
10 10 10 10 9 9 8 9 8 7 7 7 7 7 7 7 6 6 5 4 2 1 0 -0 -2 -3 -3 -3 -3 -2 -2 -1 -1 -1 -1 -1 -0 -0 -0 -0 -0 -0 -0
10 10 10 10 9 9 8 9 8 7 7 7 7 8 8 7 7 7 6 3 1 -1 -2 -3 -3 -3 -2 -2 -1 -1 -0 1 2 3 2 1 0 1 1 1 1 0 0
10 10 10 9 8 9 6 8 8 7 7 7 7 8 8 8 7 7 7 5 5 2 1 0 -1 -0 0 0 1 2 3 4 5 5 5 4 3 3 3 4 4 4 4
10 10 10 10 9 9 4 4 7 7 6 6 7 7 6 6 7 7 7 7 7 6 6 6 6 5 5 5 4 3 3 4 4 5 5 5 6 5 5 5 5 5 5
9 9 8 7 9 7 2 -1 1 5 6 6 7 7 7 6 5 5 7 6 7 7 4 4 3 3 4 4 3 2 2 2 2 3 3 4 5 5 5 4 4 4 4
10 10 9 8 7 8 2 -1 -0 3 5 5 6 7 7 6 6 5 4 4 4 3 -1 -2 -0 1 1 2 2 -0 0 2 2 3 2 3 3 3 4 4 5 5 5
9 10 10 9 8 9 7 1 0 -2 1 3 3 6 6 6 5 5 5 3 -0 -1 -0 0 2 3 4 3 -0 2 4 4 4 4 3 3 4 4 4 5 5 5 5
9 9 10 9 9 8 8 8 2 -3 -5 -4 1 6 6 5 4 5 5 5 0 1 2 3 2 2 3 1 2 2 2 2 3 3 3 3 4 4 4 4 4 4 4
8 7 9 9 10 9 9 9 5 -0 -1 -0 0 5 4 6 6 6 6 5 3 2 2 2 2 1 0 2 2 2 3 4 3 3 3 3 3 3 4 4 4 4 4
8 8 8 8 9 9 9 9 8 4 1 4 5 3 4 5 7 6 6 6 5 4 3 3 4 3 2 2 3 3 3 4 4 3 4 4 4 4 3 3 3 3 4
8 8 8 8 9 9 9 9 8 9 6 3 5 6 4 4 5 3 6 6 6 6 6 4 4 3 4 2 3 4 4 5 5 4 4 4 4 2 2 3 4 4 4
8 8 8 8 8 9 9 9 8 8 8 8 8 7 7 7 7 6 7 6 5 6 5 5 3 3 5 3 2 4 3 4 4 5 5 5 5 4 4 5 4 4 4
8 8 8 8 8 9 8 8 8 8 7 8 8 8 8 7 7 7 7 6 5 5 5 4 3 5 5 6 6 3 2 3 4 3 3 2 2 3 3 3 5 5 6
8 8 8 8 8 8 8 7 7 7 7 7 7 7 7 7 7 7 6 6 6 5 6 6 6 5 6 6 6 6 6 6 5 3 2 2 2 3 3 5 5 5 6
8 8 8 8 7 7 7 7 7 7 7 7 8 8 7 7 7 6 6 5 5 6 7 7 7 7 6 7 7 7 7 6 6 6 5 6 6 6 5 5 5 5 6
9 8 8 8 9 8 8 8 8 8 8 8 8 8 8 8 7 7 6 6 6 7 7 7 7 7 7 7 7 7 7 7 7 7 7 7 7 7 7 6 6 6 6
8 8 8 8 8 8 8 8 8 8 8 8 8 8 8 8 8 8 8 8 7 7 7 7 7 7 7 7 7 7 7 7 7 7 7 7 7 6 6 6 6 6 6
7 7 7 7 7 7 8 8 8 8 8 8 8 8 7 7 7 7 8 8 8 8 8 8 7 7 7 7 7 7 7 7 7 7 7 7 5 3 0 0 -1 -1 -1
5 5 6 6 6 6 6 7 7 7 7 7 7 7 7 7 7 7 7 7 7 7 7 7 7 7 7 7 7 7 6 6 3 2 1 -0 -4 -3 -4 -4 -4 -4 -4
0 1 1 1 1 1 1 1 2 2 3 3 4 5 5 6 6 6 7 7 6 6 6 6 5 5 4 4 2 1 2 3 2 1 1 -0 -2 -3 -5 -7 -6 -6 -5

GFSMA_850_dewp_078.txt.gz
Dewpoint
10 7 7 9 9 10 10 11 10 10 11 11 10 10 9 8 8 7 8 7 8 8 7 8 7 5 -0 1 -4 -9 -14 -16 -18 -19 -19 -17 -16 -16 -16 -15 -15 -15 -15
11 8 8 9 10 10 10 10 10 10 10 10 10 10 9 7 7 7 7 8 7 7 8 8 8 8 5 3 -4 -13 -16 -16 -16 -16 -16 -16 -15 -14 -14 -14 -13 -13 -13
9 8 8 8 10 10 10 9 10 10 10 9 9 9 8 7 6 7 6 7 7 7 7 8 7 8 7 0 -9 -14 -15 -15 -14 -14 -14 -13 -13 -11 -11 -10 -11 -11 -11
11 10 9 9 10 10 10 10 10 10 9 9 9 8 8 8 7 7 6 7 8 8 7 7 8 8 7 -4 -10 -11 -11 -11 -10 -10 -9 -8 -6 -6 -5 -5 -6 -7 -7
11 11 10 10 9 10 9 10 10 10 9 9 8 8 8 8 7 6 7 7 7 7 7 7 7 7 7 6 -5 -6 -6 -6 -5 -4 -3 -2 -2 -2 -2 -2 -3 -4 -5
10 11 10 10 9 10 7 9 10 9 9 8 8 8 8 8 8 7 7 6 7 7 6 8 6 6 6 5 -2 -3 -2 -2 -2 -1 -1 -1 -1 -1 -1 -1 -1 -2 -2
11 10 10 11 10 10 8 9 10 9 9 9 8 8 9 9 9 9 8 7 7 7 7 7 6 6 3 -2 -2 -3 -2 0 -1 -1 -1 -1 -0 -0 -0 -0 -0 -1 -1
10 11 10 10 10 10 8 9 9 9 8 9 8 8 9 8 8 8 9 8 7 7 6 7 7 7 6 6 -3 -3 -2 -2 1 1 1 -0 -1 -0 -0 0 0 0 0
9 10 10 10 10 10 9 9 9 9 8 9 8 6 7 6 8 9 8 8 7 7 6 7 6 5 4 5 2 -2 -1 1 2 3 5 4 3 2 2 3 3 3 4
9 10 10 10 10 10 10 8 9 9 8 9 8 7 6 4 6 8 8 8 6 4 4 -1 1 -3 -3 -1 0 -0 1 1 2 3 4 5 6 5 5 5 5 5 4
9 10 10 10 10 9 9 8 9 9 9 8 8 8 8 8 7 5 6 8 8 6 4 2 3 -1 -2 3 3 3 2 2 2 2 3 3 4 5 5 5 5 4 4
9 10 10 10 8 8 8 9 7 8 8 8 8 8 7 7 7 6 5 6 7 6 3 4 2 2 -0 -1 -0 -0 1 1 1 2 2 2 2 2 2 3 4 4 4
10 9 9 9 9 9 9 9 5 5 7 8 8 7 7 7 6 6 5 4 5 6 7 4 2 2 -0 -1 2 3 3 0 -0 2 3 4 3 3 3 3 3 4 4
10 9 9 10 8 7 8 7 4 2 1 4 6 8 8 5 6 7 6 6 3 4 4 4 2 -1 -1 0 2 2 3 3 3 2 2 3 4 3 4 4 4 4 4
8 8 9 9 10 9 8 8 4 1 1 2 4 3 4 4 6 8 7 6 5 5 4 3 5 4 2 1 1 1 1 1 2 3 3 3 3 3 3 3 4 4 4
8 8 8 9 9 10 9 9 8 7 6 3 -1 -1 0 -0 6 8 7 5 6 7 6 5 4 3 4 3 1 1 2 2 3 4 3 3 3 3 4 4 4 3 3
8 8 8 8 9 9 9 8 7 8 8 6 -0 -1 -1 1 1 3 4 5 6 6 7 7 6 5 5 6 5 3 2 3 3 2 4 4 4 3 3 4 4 4 4
8 8 8 8 8 9 9 9 9 9 9 8 5 1 0 2 4 5 4 4 5 5 5 4 5 5 5 4 5 6 6 6 5 4 1 2 2 3 4 4 4 4 3
8 8 8 8 8 8 9 9 9 9 9 8 8 8 3 3 4 5 5 5 6 6 6 7 7 6 5 6 6 6 6 6 7 7 4 2 2 1 1 2 3 3 3
8 8 8 8 8 8 8 9 9 9 8 8 8 7 8 8 8 8 8 8 8 8 7 8 7 7 7 6 6 6 6 6 7 6 7 6 7 6 5 5 5 6 5
8 8 8 8 8 8 8 8 8 8 8 7 7 7 7 7 7 8 8 8 8 8 8 8 8 7 7 7 7 7 7 7 7 7 7 7 8 8 8 8 7 6 6
8 8 8 8 8 8 8 8 7 8 8 8 8 8 8 8 8 8 8 8 7 8 8 8 8 8 7 6 7 7 7 7 7 7 8 8 8 8 8 8 7 7 6
8 8 8 8 8 8 8 8 8 8 8 8 7 7 7 7 8 8 8 8 8 8 8 7 7 8 8 8 7 7 7 7 7 7 8 8 8 8 7 7 7 7 6
7 7 7 7 7 7 7 7 7 7 7 7 7 7 7 7 7 7 7 7 7 7 7 7 7 7 7 7 7 7 7 7 7 7 6 6 5 4 3 3 2 0 -0
5 5 5 5 5 5 6 6 6 5 6 6 6 6 6 6 6 6 6 6 6 6 6 6 6 6 5 5 6 5 5 4 4 4 3 2 2 2 1 -1 -1 -1 -2
1 1 1 1 1 1 0 0 0 1 2 3 2 2 2 3 3 4 4 4 4 4 4 3 3 3 1 1 0 0 1 1 1 -0 -0 -1 -2 -3 -5 -6 -5 -6 -6

GFSMA_850_dewp_084.txt.gz
Dewpoint
12 11 11 9 9 9 9 10 9 9 7 10 10 9 9 7 8 8 7 7 6 6 8 7 8 8 4 -2 1 -5 -9 -14 -12 -11 -13 -18 -21 -22 -20 -19 -19 -19 -19
12 12 11 11 10 9 10 10 9 9 9 10 8 10 7 8 8 7 7 7 5 7 7 8 9 9 7 -0 -2 -7 -9 -9 -11 -16 -19 -20 -19 -17 -16 -15 -15 -15 -15
12 12 11 11 10 11 11 9 9 10 10 10 9 8 7 7 7 7 7 5 7 7 7 7 7 8 3 7 4 -6 -9 -13 -16 -18 -18 -16 -15 -15 -14 -14 -13 -13 -13
12 12 12 11 10 9 9 9 10 10 10 10 9 8 8 7 6 7 7 6 7 7 6 7 7 7 7 7 4 -7 -12 -15 -16 -15 -15 -15 -14 -13 -12 -11 -10 -10 -11
11 11 11 11 10 8 8 9 9 10 10 10 8 7 8 6 7 7 6 7 5 6 6 7 7 7 7 7 0 -12 -14 -15 -14 -13 -12 -12 -10 -8 -6 -5 -5 -6 -6
11 10 11 11 10 8 9 9 10 10 10 10 7 7 7 6 6 6 6 7 6 5 4 6 6 7 7 7 -0 -12 -13 -12 -10 -8 -7 -6 -4 -3 -3 -3 -3 -3 -4
10 11 11 11 10 9 9 9 10 10 9 9 7 7 7 7 5 6 6 7 7 6 7 4 5 4 1 6 -0 -10 -8 -6 -4 -3 -3 -2 -2 -1 -2 -2 -2 -2 -2
10 11 11 11 10 10 9 9 9 10 10 8 6 7 7 7 6 6 6 6 7 6 7 6 7 6 -1 -0 -5 -6 -5 -2 -2 -2 -2 -1 -1 -1 -1 -1 -1 -1 -1
10 10 10 10 11 10 10 9 10 9 8 9 7 7 8 8 6 6 6 6 6 6 6 7 8 7 6 6 5 -4 -4 -2 -2 -2 -2 -1 -1 -1 -1 -1 -1 -0 0
10 10 10 10 10 8 10 10 10 8 8 9 7 6 5 5 6 7 6 6 6 6 6 6 6 6 7 7 7 5 -3 -4 -4 -3 -2 0 1 2 2 1 1 1 2
10 10 11 10 9 9 10 10 10 9 8 8 7 7 5 6 5 5 7 7 7 7 7 6 7 7 6 6 7 7 1 -2 -4 -3 -2 -1 0 2 2 3 3 3 3
9 10 9 9 10 10 9 10 10 8 7 9 8 6 7 6 6 7 7 7 6 7 6 5 5 6 6 5 2 3 3 -1 -1 1 1 0 0 1 -0 -0 -1 0 1
9 9 8 8 9 10 9 9 9 8 8 8 7 7 8 7 6 7 8 7 7 7 7 7 6 4 2 3 1 1 1 -0 -0 -0 1 2 2 1 0 0 2 3 3
9 9 8 9 10 10 10 10 10 8 8 8 8 7 7 7 7 6 6 6 6 6 7 7 6 6 4 2 0 0 0 1 1 0 1 3 2 3 3 2 3 3 3
9 9 9 9 9 10 9 10 9 8 8 6 8 7 7 5 6 7 7 6 7 6 6 5 6 6 5 5 4 4 2 1 -0 0 1 1 1 3 3 3 3 2 3
9 9 9 9 9 9 9 10 9 8 8 8 8 8 7 7 6 7 7 5 7 6 6 5 5 5 6 6 6 6 5 4 3 4 3 3 2 2 2 2 2 3 3
9 9 9 9 9 9 9 9 9 9 8 8 9 8 7 6 3 5 7 4 5 5 5 3 4 3 3 3 3 4 6 6 6 5 6 5 3 2 2 2 2 2 2
8 8 9 8 9 9 9 9 9 9 9 9 7 5 4 4 5 5 5 5 4 4 4 3 3 5 6 5 5 5 5 5 5 5 5 5 5 4 4 2 3 2 1
7 8 8 9 8 8 9 9 9 9 9 8 8 7 6 5 6 6 6 6 4 4 5 2 1 2 2 3 4 4 5 5 5 5 4 5 5 5 4 6 6 5 5
7 8 8 9 9 9 9 9 9 9 9 9 9 9 9 9 9 8 8 7 6 4 3 2 1 2 3 6 7 7 7 7 6 6 6 7 8 7 7 7 7 7 7
8 8 8 8 8 9 8 8 9 8 9 9 9 9 9 9 8 8 8 8 8 7 7 7 7 7 8 8 8 9 9 9 9 9 9 9 9 9 9 9 8 8 8
8 9 8 8 8 8 8 8 8 9 9 9 9 8 9 9 8 8 8 8 8 8 8 8 8 8 8 8 8 8 7 8 8 8 8 8 7 7 6 6 6 6 6
8 8 8 8 8 8 8 8 8 8 8 8 8 8 8 8 8 8 7 8 8 8 8 8 8 7 7 7 7 7 7 6 6 6 6 6 6 5 5 5 5 5 4
7 7 7 7 7 7 8 8 8 8 7 7 7 7 7 7 7 7 6 6 6 6 6 6 6 5 5 4 4 4 4 4 4 3 3 3 3 2 2 2 1 1 -0
5 4 3 4 4 5 5 6 6 6 6 6 5 5 5 5 5 5 5 4 3 3 3 3 2 2 1 1 2 2 1 1 0 0 -0 -1 -1 -1 -1 -1 -2 -3 -3
2 3 2 2 1 2 1 2 2 3 3 3 2 2 2 2 2 1 1 1 1 0 -0 -0 -1 -1 -1 -3 -4 -4 -5 -5 -4 -3 -3 -4 -4 -4 -5 -5 -6 -6 -7

GFSMA_850_dewp_087.txt.gz
Dewpoint
11 11 11 11 10 8 8 9 9 9 7 8 8 8 9 9 9 9 9 8 7 7 3 2 9 9 8 7 5 -1 -5 -6 -10 -16 -18 -14 -14 -19 -22 -23 -23 -23 -22
12 11 11 11 11 9 9 8 8 8 8 8 9 8 9 9 9 8 8 7 7 6 3 -3 7 7 7 5 4 1 -4 -11 -13 -13 -12 -16 -20 -21 -20 -18 -18 -17 -17
12 12 12 11 10 9 10 9 10 9 9 10 10 9 9 8 8 8 8 7 6 6 5 7 8 8 9 7 3 -6 -3 -8 -10 -13 -18 -20 -20 -17 -16 -15 -15 -14 -14
11 12 12 12 11 10 9 9 10 10 10 10 10 9 9 8 7 7 7 6 5 6 6 8 8 8 8 7 7 -4 -10 -11 -14 -18 -19 -18 -16 -15 -14 -13 -12 -12 -12
12 12 12 12 11 11 10 10 10 9 10 10 10 9 8 8 7 6 6 6 5 5 6 6 7 6 7 8 3 -4 -11 -15 -17 -17 -16 -15 -14 -12 -10 -9 -8 -8 -8
12 12 12 11 11 10 10 10 9 9 10 11 10 9 8 7 6 6 6 6 6 4 5 6 7 7 7 7 -5 -9 -14 -15 -15 -15 -13 -11 -9 -7 -5 -3 -3 -3 -4
11 12 11 11 11 10 10 9 9 10 9 10 10 9 8 6 5 7 6 6 6 6 3 5 6 6 4 4 -5 -12 -14 -14 -13 -10 -8 -6 -4 -3 -2 -2 -3 -3 -3
11 11 10 10 10 11 9 8 9 10 10 10 10 8 7 6 6 6 6 6 6 7 5 5 4 5 6 1 -3 -10 -11 -8 -7 -6 -4 -3 -2 -2 -2 -2 -2 -2 -2
10 10 10 10 10 11 9 9 9 10 10 10 9 7 7 7 6 6 7 6 6 7 6 7 6 7 7 0 -1 -5 -7 -6 -3 -2 -2 -2 -1 -1 -1 -1 -1 -1 -1
10 10 10 10 10 10 9 10 10 10 10 9 9 7 5 6 6 7 6 6 6 6 7 6 7 7 7 6 6 6 5 -4 -3 -2 -2 -3 -1 -0 -0 -1 -1 -1 -1
10 10 10 10 10 10 10 10 10 10 9 9 8 7 6 5 6 6 6 6 6 6 6 6 6 6 6 6 6 6 6 4 -1 -3 -3 -3 -1 -0 1 2 2 2 3
10 10 10 10 10 9 10 10 10 10 10 9 8 8 7 4 5 5 5 6 5 5 6 6 6 7 7 7 6 6 6 6 4 2 -1 -2 -0 1 1 1 1 1 1
10 10 10 10 9 10 9 10 10 10 9 8 9 8 7 5 7 6 6 6 5 6 6 7 6 6 6 6 6 4 3 3 -0 -2 -1 2 2 2 2 3 3 3 2
10 9 9 8 9 9 10 10 10 10 8 9 9 8 7 5 8 7 7 7 8 8 7 6 6 7 6 5 3 2 1 0 0 1 1 1 2 2 3 3 3 4 3
9 10 9 8 8 9 10 10 10 10 9 8 8 8 7 8 8 7 7 7 7 7 7 8 8 7 6 6 6 6 5 4 5 4 3 2 2 2 2 2 2 3 3
9 9 9 9 9 9 9 9 10 10 9 8 8 8 8 8 8 7 7 7 7 6 5 4 5 6 6 7 7 7 7 6 5 4 4 3 4 4 4 4 3 2 2
9 9 9 9 9 10 9 9 9 9 9 9 9 8 9 8 7 7 6 7 7 7 6 4 6 6 6 4 4 5 5 5 5 5 5 5 5 6 5 5 6 5 4
8 9 9 9 9 9 9 9 9 9 9 8 7 8 8 8 7 7 6 3 3 4 5 6 5 6 5 3 3 3 5 6 6 5 4 4 4 6 6 6 7 6 6
8 7 8 8 9 9 9 9 9 9 8 8 8 8 9 7 7 4 3 5 6 6 6 6 5 4 3 1 1 3 4 4 6 7 7 8 7 7 7 6 6 6 6
7 8 8 9 8 8 9 9 9 9 9 9 9 9 8 8 7 6 6 7 8 7 7 7 5 5 4 4 3 4 7 8 8 8 8 8 8 8 8 8 8 8 7
7 8 8 9 9 8 9 9 9 9 9 9 8 8 8 8 8 8 8 8 8 7 8 8 7 7 8 7 7 8 8 8 8 7 8 8 8 8 8 8 7 7 7
7 8 8 8 9 9 9 9 8 9 9 8 8 8 8 8 8 8 8 8 8 7 8 8 8 8 8 8 7 8 8 8 8 7 7 7 6 7 6 6 6 6 5
8 8 8 8 8 8 8 8 8 8 8 8 8 8 8 7 7 8 8 8 8 8 8 7 7 7 7 7 7 7 6 6 5 5 5 5 5 4 4 3 2 1 2
7 7 7 7 8 8 8 8 8 8 8 8 7 7 7 7 7 7 7 6 6 6 6 6 5 4 4 4 4 4 4 3 3 2 2 2 2 1 0 -0 -1 -1 -1
4 4 4 4 6 6 6 5 5 6 7 7 6 6 6 5 5 4 5 4 4 3 2 2 1 1 1 1 1 -0 -1 -1 -0 -0 -1 -2 -2 -3 -3 -3 -4 -5 -6
1 1 1 2 3 3 1 2 2 3 4 3 3 3 3 3 3 2 1 1 -0 -0 -1 -1 -1 -1 -2 -3 -4 -4 -5 -5 -6 -5 -6 -6 -6 -6 -5 -6 -6 -8 -8

GFSMA_850_dewp_093.txt.gz
Dewpoint
9 9 9 9 10 10 11 8 8 9 9 10 10 10 11 9 10 10 9 9 9 9 8 8 8 9 8 9 9 9 9 9 7 3 -1 -5 -8 -11 -15 -18 -17 -17 -18
9 9 9 9 9 10 9 9 9 8 10 10 10 11 10 9 10 10 9 9 9 9 8 8 8 9 9 9 9 9 8 8 5 1 -4 -8 -13 -18 -15 -15 -17 -20 -22
11 10 10 10 10 10 10 10 9 10 9 9 9 10 10 9 9 9 9 10 10 8 7 7 8 8 9 9 8 8 8 8 7 4 -3 -14 -17 -13 -16 -21 -21 -20 -20
11 11 10 10 10 10 11 11 9 10 9 9 10 9 10 10 10 9 9 10 9 8 7 6 7 8 9 8 8 8 7 7 7 2 -8 -13 -12 -18 -20 -19 -17 -16 -15
11 11 10 10 10 11 11 10 9 9 9 9 9 9 10 9 10 9 9 10 8 7 6 5 5 8 8 8 8 8 7 5 2 3 -7 -9 -15 -16 -16 -15 -15 -14 -13
11 11 10 9 11 11 11 10 9 10 9 9 9 10 10 10 10 9 9 9 7 6 5 5 7 8 8 7 8 8 8 4 1 4 -2 -12 -17 -16 -14 -13 -13 -12 -11
12 11 10 8 10 12 11 11 10 10 10 10 10 10 10 10 10 10 9 7 6 6 5 5 6 7 7 7 7 7 8 8 6 2 -1 -14 -16 -15 -13 -12 -10 -8 -7
12 11 11 10 11 11 12 12 11 11 11 10 10 11 10 9 10 10 8 7 6 5 4 5 5 6 6 6 7 7 7 8 7 6 -5 -15 -14 -12 -10 -8 -5 -4 -4
12 10 9 10 11 11 11 11 11 11 10 10 10 10 9 9 9 9 8 7 6 6 5 5 5 5 5 5 5 4 4 4 7 -1 -11 -11 -9 -7 -5 -4 -3 -2 -2
10 11 10 9 10 11 11 11 11 10 10 10 10 10 10 9 9 9 9 8 7 6 6 6 3 4 5 5 6 5 3 1 -3 -8 -8 -7 -5 -4 -3 -2 -1 -1 -1
9 11 9 9 10 11 11 10 11 11 10 10 9 10 10 8 9 8 8 8 8 6 6 6 6 5 5 6 6 4 2 2 0 -3 -4 -2 -0 -1 -1 -0 -0 -0 -0
8 10 9 8 10 11 10 11 11 11 11 10 10 9 9 8 8 8 8 7 7 7 6 6 6 6 7 6 6 6 5 5 6 6 4 -1 -2 -2 -2 -1 0 1 2
7 6 7 10 10 10 10 10 11 11 11 10 10 10 9 8 8 8 7 7 7 7 6 6 6 6 6 6 6 6 6 6 6 6 6 6 5 2 -0 -0 0 2 2
3 6 9 10 10 10 10 10 9 10 10 10 10 9 9 9 8 8 5 6 7 7 7 6 6 6 6 6 6 6 7 7 7 6 6 6 5 5 3 1 3 4 4
6 9 9 9 9 10 9 9 9 10 10 10 10 9 9 8 8 7 6 5 4 7 7 6 6 6 6 6 6 6 7 7 7 7 7 6 4 3 3 4 5 5 6
8 8 9 9 10 10 11 10 10 9 10 9 10 9 9 8 8 7 7 5 5 6 6 6 6 6 6 7 7 8 8 8 7 7 7 6 6 6 7 7 7 6 5
8 8 8 9 9 9 9 9 9 9 9 10 10 10 9 9 8 7 7 6 8 7 7 8 8 8 7 7 7 7 7 6 7 7 6 6 5 6 6 5 6 6 6
8 8 8 9 10 9 8 9 8 9 9 10 10 10 10 9 8 8 7 8 8 7 7 5 7 8 7 6 6 5 6 6 6 6 6 6 5 4 6 6 5 4 5
8 8 8 9 9 9 9 9 9 9 9 9 9 9 9 9 9 8 8 9 8 8 6 6 7 6 6 5 4 5 5 7 6 5 5 5 7 7 6 5 7 8 8
8 8 7 7 8 9 9 9 9 9 9 9 9 9 9 9 9 9 7 8 8 7 6 6 6 5 5 6 7 7 6 5 5 4 3 3 4 6 7 8 8 7 7
7 7 7 7 8 9 9 9 9 9 9 9 9 9 9 9 9 8 8 8 8 8 8 8 7 6 7 7 7 7 7 7 7 7 7 7 7 7 7 7 7 7 6
8 7 7 6 8 8 8 8 9 9 9 9 9 9 9 9 8 8 8 8 8 8 7 7 7 7 7 7 7 7 7 7 6 6 6 6 6 6 5 5 5 4 4
8 7 6 6 8 8 8 8 8 9 9 9 9 9 9 8 8 8 8 8 8 8 8 7 7 7 7 7 7 7 6 6 6 5 4 3 3 3 3 2 1 1 1
8 8 7 7 8 8 8 8 8 8 8 8 8 8 8 8 8 8 8 8 8 7 7 7 7 6 6 7 6 6 5 5 4 4 2 2 2 1 0 -0 -1 -2 -3
7 6 6 7 7 8 8 8 7 8 8 7 7 7 6 7 6 6 7 7 7 6 6 6 6 5 4 4 4 3 3 3 2 1 1 0 -1 -1 -3 -4 -5 -6 -6
3 2 2 3 3 5 4 4 5 6 6 5 5 5 4 5 4 4 4 4 4 3 2 2 2 2 1 0 -1 -2 -2 -2 -3 -3 -4 -4 -5 -7 -7 -6 -6 -7 -8

GFSMA_850_dewp_096.txt.gz
Dewpoint
4 7 10 11 11 13 12 11 11 9 9 10 10 10 9 8 10 10 10 10 10 10 9 8 8 9 9 9 9 9 9 10 9 8 6 1 -2 -5 -9 -12 -15 -16 -18
4 6 9 10 10 11 11 11 11 8 8 9 10 10 10 8 10 10 10 10 10 10 9 8 8 8 9 8 8 9 9 9 9 7 2 -2 -3 -7 -13 -16 -16 -16 -18
4 6 9 9 9 10 11 11 9 8 9 9 10 11 8 8 10 10 10 9 9 9 9 8 8 8 9 8 9 8 8 8 8 5 4 -1 -8 -12 -15 -14 -15 -19 -22
5 7 9 10 10 10 10 10 9 9 9 10 10 10 10 10 10 10 10 9 9 9 8 7 8 8 8 7 9 8 8 8 8 8 5 -1 -10 -12 -12 -18 -20 -19 -18
6 8 10 11 11 11 11 11 10 10 9 10 10 9 8 7 10 10 9 9 9 9 8 7 6 6 8 8 8 8 8 7 7 7 7 4 -7 -11 -17 -18 -17 -15 -15
8 9 10 11 11 11 11 11 11 10 10 10 10 10 8 8 9 9 9 9 9 10 8 6 5 4 8 8 8 8 7 7 7 7 7 4 -8 -16 -16 -15 -14 -13 -13
9 9 10 10 12 11 11 12 11 10 10 10 10 10 10 10 10 10 9 10 9 9 7 6 4 4 7 7 7 7 7 7 7 7 7 4 -9 -16 -16 -14 -13 -11 -9
10 10 10 10 11 10 12 12 11 11 11 10 10 10 10 10 11 10 10 10 10 8 6 5 4 5 5 7 7 7 7 7 7 7 7 -2 -15 -16 -14 -13 -10 -8 -5
8 10 11 11 10 10 10 11 11 11 11 11 10 10 10 10 10 10 9 10 10 7 6 4 4 5 6 5 7 7 6 7 7 7 5 -1 -11 -13 -11 -9 -6 -4 -3
8 9 12 11 10 9 10 10 11 10 10 11 11 10 10 9 9 9 9 10 9 7 6 5 6 5 5 5 5 5 4 5 6 7 6 -0 -6 -7 -6 -5 -3 -2 -2
10 11 12 10 9 9 10 10 11 10 10 10 11 11 10 10 9 9 9 9 9 7 6 6 6 4 4 5 5 5 5 4 3 0 2 4 3 -1 -2 -2 -2 -1 -1
10 12 12 10 10 8 9 10 11 9 10 10 11 11 10 10 10 9 9 9 8 8 6 6 6 6 3 3 5 6 5 3 2 1 0 -1 1 1 1 -0 -0 0 1
10 13 12 12 9 8 9 9 10 10 10 10 10 10 10 9 9 9 9 8 8 8 7 6 6 6 6 6 6 6 6 6 6 6 6 6 5 2 1 -1 -1 -1 -1
6 8 10 10 9 8 9 10 9 9 10 9 10 10 10 10 10 9 9 8 8 8 7 6 6 6 6 6 6 6 6 6 6 6 6 6 6 6 6 6 5 4 3
5 6 8 7 8 9 9 9 9 9 9 9 10 10 9 10 10 9 8 8 5 6 8 7 6 5 5 6 6 6 6 7 7 7 7 7 6 6 6 6 6 5 6
6 5 6 9 8 9 9 9 9 9 9 9 10 10 10 10 9 8 9 7 6 5 5 6 6 6 6 6 6 6 7 7 7 7 7 7 7 7 6 6 6 7 6
6 8 9 8 9 9 9 9 9 9 9 9 10 10 10 10 9 9 9 7 6 5 5 3 7 7 6 6 6 6 7 8 8 8 8 8 8 7 6 6 6 6 5
8 8 8 8 8 9 10 9 9 9 9 9 9 9 10 9 9 9 8 7 6 6 6 7 8 7 7 7 8 8 7 7 7 6 6 6 6 6 6 5 5 5 6
9 9 9 9 9 9 9 9 9 9 9 9 8 9 9 9 9 8 8 7 6 7 7 8 7 7 7 7 7 6 6 6 6 6 6 6 6 6 6 6 6 5 6
9 9 9 9 9 9 7 9 9 9 9 9 9 9 9 9 9 8 8 8 7 8 8 8 7 6 7 8 7 6 7 6 6 6 6 6 5 4 3 3 5 5 6
8 8 7 7 7 6 7 8 8 8 9 9 9 9 9 9 9 9 8 7 8 8 8 7 7 7 7 6 6 6 7 7 7 6 6 5 5 4 4 6 6 7 6
9 8 8 7 6 6 8 8 8 9 9 8 9 9 9 9 9 9 8 8 8 8 8 7 7 7 7 7 7 7 7 6 6 6 6 6 6 5 5 5 5 5 4
9 8 7 6 6 6 6 8 8 8 8 9 9 9 8 8 9 8 8 8 8 8 8 8 8 8 7 7 7 7 7 6 6 6 5 4 4 3 3 2 2 2 2
8 8 7 6 6 5 7 8 8 8 8 8 8 8 8 8 8 8 8 8 8 8 7 7 8 7 7 7 7 7 6 6 5 4 3 2 2 1 0 0 -0 -1 -1
6 7 6 6 6 6 7 8 7 7 7 7 7 7 7 7 7 7 7 7 7 7 7 7 7 7 7 6 6 5 4 3 3 2 1 1 0 -0 -1 -2 -4 -5 -6
1 2 3 4 3 5 6 6 5 6 6 6 5 5 4 4 4 5 5 5 6 5 3 5 3 3 3 3 2 2 1 1 0 -0 -1 -2 -2 -4 -6 -6 -6 -7 -7

GFSMA_850_dewp_099.txt.gz
Dewpoint
-0 1 5 8 11 12 12 13 13 12 12 12 11 10 10 9 9 7 8 10 11 12 11 10 9 9 8 9 9 9 9 9 10 9 8 7 4 1 -3 -8 -11 -11 -13
0 1 4 7 9 11 13 13 12 11 12 12 11 11 11 10 10 8 8 10 11 11 11 8 9 8 9 9 8 8 8 9 9 9 8 6 0 -2 -6 -8 -11 -14 -15
1 2 5 6 9 9 11 13 12 12 11 11 9 10 10 10 10 9 9 11 11 11 10 10 8 8 9 9 8 8 8 8 8 9 9 4 1 -3 -8 -12 -13 -14 -16
2 3 6 7 8 8 10 12 12 12 12 9 9 10 10 10 11 9 11 11 11 10 10 9 9 8 8 9 8 7 8 8 8 8 8 4 3 -1 -11 -10 -12 -16 -20
2 4 6 7 8 9 10 10 11 12 9 10 10 11 11 9 8 8 10 11 11 9 9 9 7 7 8 9 8 8 8 8 7 7 7 4 1 -7 -9 -14 -20 -19 -17
3 5 7 9 9 10 10 11 11 10 10 10 10 11 11 11 8 8 10 11 10 9 9 8 8 7 8 9 9 8 8 8 7 6 7 6 -2 -5 -10 -18 -18 -16 -14
5 5 6 9 9 10 9 11 11 11 11 10 10 11 10 9 9 8 10 9 10 10 9 10 7 8 8 9 9 8 8 7 7 7 6 7 3 -9 -16 -17 -14 -13 -12
8 7 7 9 9 10 10 11 12 11 11 10 11 10 10 10 8 8 9 9 9 10 10 9 7 5 8 8 9 8 7 7 7 6 7 6 5 -5 -11 -14 -13 -12 -10
10 9 10 9 9 9 10 12 11 11 11 10 11 10 10 10 10 10 9 9 9 10 10 9 6 5 5 7 7 6 7 7 7 5 7 7 5 -13 -14 -13 -12 -9 -6
9 10 11 10 10 10 10 12 10 10 11 10 11 10 10 10 10 10 10 10 10 10 10 8 6 4 4 5 6 6 7 7 7 7 7 7 3 -11 -13 -11 -9 -6 -4
7 8 4 11 10 10 11 10 11 10 10 11 11 10 10 10 9 9 9 9 10 9 10 8 6 4 4 4 5 6 5 4 6 7 7 7 5 -4 -7 -6 -5 -3 -2
6 7 6 6 11 11 10 9 9 10 10 10 10 10 10 10 10 9 9 9 9 10 9 8 7 6 5 4 4 4 5 5 5 4 5 6 7 6 3 2 -0 -0 0
3 4 5 10 11 12 9 9 9 10 10 10 10 10 10 10 10 10 9 9 9 9 8 8 7 6 5 3 4 4 6 6 5 3 2 1 2 4 6 7 6 4 2
4 5 6 11 11 11 10 9 9 10 10 10 10 9 10 10 10 10 10 9 9 9 9 8 7 7 5 5 3 5 6 6 5 5 5 6 6 6 5 4 3 3 4
6 7 8 11 12 11 11 8 9 10 10 9 9 9 10 9 10 10 10 10 9 8 8 8 7 6 6 6 6 6 6 6 7 7 6 7 7 7 7 7 7 6 6
9 10 9 11 12 12 11 9 8 10 9 10 10 9 9 10 10 9 9 10 9 9 8 8 7 6 5 6 6 6 6 7 7 7 7 7 7 7 7 7 6 6 5
5 9 11 12 11 8 9 9 9 9 10 9 9 9 9 10 10 10 10 10 9 8 7 7 6 5 5 5 6 6 7 7 7 7 7 7 7 7 7 7 6 6 6
5 10 9 8 8 8 8 9 9 9 9 9 9 9 9 9 10 9 10 9 9 8 7 7 5 5 6 6 6 6 7 7 7 7 8 8 7 7 7 7 7 7 7
7 9 9 9 8 8 8 9 10 9 9 9 9 9 9 9 9 9 9 9 9 8 7 6 6 6 7 7 7 7 7 8 8 7 7 7 7 7 7 7 7 7 7
8 10 8 8 8 8 9 9 9 9 9 9 9 9 8 8 8 9 9 9 8 8 7 6 7 6 7 8 8 7 8 7 7 6 6 6 6 6 7 7 7 7 6
9 9 8 9 9 9 9 9 9 9 9 9 9 9 9 9 9 9 9 8 8 7 7 7 8 8 8 7 7 7 7 7 6 7 7 6 6 6 6 6 6 4 4
10 8 9 9 8 8 7 8 8 8 9 9 8 8 9 8 9 9 8 8 8 7 7 7 8 8 7 6 6 7 7 7 6 6 6 6 5 5 5 4 4 5 5
9 9 9 8 7 6 6 8 8 8 8 8 9 8 8 8 8 8 8 8 8 8 8 8 8 8 7 7 7 7 7 7 7 6 4 3 2 2 2 2 2 2 2
6 8 8 7 6 5 6 8 8 8 8 8 8 8 8 8 8 8 8 8 8 8 8 8 8 8 7 7 7 7 7 6 6 5 4 2 1 0 -0 -0 -0 -0 -0
0 5 6 6 6 6 7 7 6 7 7 7 7 7 7 7 7 7 8 8 7 8 8 7 7 8 7 7 7 6 6 5 4 2 1 1 -0 -1 -2 -2 -1 -2 -3
0 0 2 3 4 4 4 3 5 6 6 6 6 5 6 6 6 6 6 6 6 6 6 6 7 6 6 5 5 5 4 3 3 1 0 0 -1 -1 -3 -4 -5 -6 -7

GFSMA_850_dewp_102.txt.gz
Dewpoint
8 12 13 14 14 14 14 14 13 13 12 12 13 12 13 12 12 11 7 7 8 10 11 13 11 10 10 9 9 10 10 10 9 9 8 7 6 5 4 4 -4 -8 -8
9 5 7 8 13 15 14 13 13 13 13 12 12 13 12 12 12 10 8 7 8 10 10 13 11 10 9 9 9 9 10 9 9 9 9 8 7 5 2 -3 -6 -8 -11
5 4 3 5 8 13 14 13 13 12 13 12 12 11 11 11 11 10 9 8 7 11 10 13 11 9 9 9 9 9 9 8 8 9 9 9 7 2 -2 -7 -10 -12 -15
4 4 4 3 6 10 10 11 13 13 13 12 12 12 11 10 11 10 10 9 7 10 10 12 11 9 8 9 9 9 8 8 8 8 9 9 6 0 -1 -9 -12 -15 -17
3 6 4 4 6 11 12 11 13 13 12 12 12 11 10 10 11 11 11 10 8 11 11 10 10 9 8 9 9 9 7 8 8 8 8 8 3 -0 -6 -13 -13 -14 -19
3 6 6 4 6 10 10 10 12 12 13 12 11 9 10 11 11 10 9 10 9 9 11 11 10 9 7 8 9 9 8 8 8 7 7 4 0 -7 -14 -13 -15 -18 -18
6 5 6 5 7 9 9 9 10 12 12 12 11 11 11 11 11 8 7 8 9 11 12 11 9 10 9 9 9 8 9 8 8 7 7 7 2 -9 -11 -11 -18 -17 -15
7 7 7 6 7 9 10 11 11 11 12 11 11 11 11 11 11 10 9 9 9 10 10 10 10 10 10 9 9 9 8 8 8 7 7 7 5 -6 -10 -15 -18 -14 -13
9 8 8 7 9 10 11 12 11 12 11 11 11 11 10 10 10 10 9 8 9 7 9 10 10 10 10 10 10 8 8 8 7 6 7 7 7 4 -11 -16 -14 -13 -11
11 9 9 9 9 10 11 11 12 11 11 11 11 11 11 10 10 10 9 7 8 8 8 9 10 10 9 10 9 8 9 7 6 7 6 7 7 7 -2 -13 -13 -12 -9
8 10 8 5 9 8 9 10 11 11 10 11 11 11 11 10 10 10 10 9 9 9 9 9 10 10 8 7 8 8 7 6 7 7 6 6 7 7 -0 -10 -11 -9 -6
10 8 8 9 9 6 3 6 8 11 10 9 10 11 11 10 10 10 10 9 9 10 10 10 10 10 8 6 8 7 7 6 6 7 6 7 6 7 3 -1 -3 -3 -2
10 9 7 8 8 7 3 4 6 11 10 9 10 10 10 10 10 10 10 10 9 9 9 10 10 10 8 6 7 7 6 5 4 7 7 7 7 6 6 6 6 6 3
13 12 9 6 9 5 4 5 9 12 10 8 10 10 10 10 10 10 10 10 10 9 9 9 9 9 8 6 6 5 3 4 5 5 5 5 5 6 6 6 7 7 6
12 11 9 9 5 8 6 8 10 11 9 9 10 10 10 10 10 10 10 10 10 9 9 9 9 9 7 6 5 3 3 4 5 5 5 3 3 3 3 4 4 5 5
11 11 9 6 7 9 11 10 11 10 9 10 10 10 10 10 9 9 10 9 10 10 9 9 9 8 8 7 7 5 2 5 6 6 6 6 6 7 7 7 7 7 7
11 10 7 9 10 11 11 10 11 11 8 9 10 9 9 9 9 9 9 10 9 9 9 9 9 9 8 7 7 7 6 6 7 7 7 7 7 7 7 7 7 7 7
11 10 8 6 6 10 11 11 11 10 8 10 10 10 10 9 9 9 10 10 9 9 10 9 8 8 7 6 7 7 7 8 7 7 7 7 7 7 7 7 7 7 7
10 8 6 4 4 10 10 9 9 9 10 10 9 9 9 9 10 9 9 9 9 9 9 9 8 8 7 7 6 7 8 7 7 7 7 7 7 7 7 7 7 8 8
6 7 6 4 7 8 9 10 9 9 9 9 9 9 9 9 9 9 9 9 9 9 9 8 8 7 7 6 7 7 8 8 7 7 7 7 8 8 8 8 7 7 7
10 9 8 9 8 8 9 8 9 9 9 9 9 9 9 8 9 8 9 8 9 9 8 8 8 7 6 7 8 8 8 8 8 8 8 8 7 7 7 7 7 7 7
9 10 10 8 8 8 8 9 9 9 8 8 9 9 9 8 8 9 8 9 9 8 8 8 7 7 7 7 8 8 8 7 6 7 7 6 6 6 6 6 5 6 5
7 8 9 9 8 8 9 9 8 8 8 8 9 9 9 8 8 8 9 8 8 8 8 8 7 7 7 6 6 7 8 8 7 6 6 5 4 3 3 3 3 3 2
4 4 6 8 9 8 7 8 8 8 8 8 8 8 8 8 8 8 8 8 8 8 8 8 7 7 7 7 8 7 7 7 7 7 6 3 0 0 0 -0 -0 -1 -0
1 1 2 2 7 6 7 7 8 7 7 7 7 8 8 8 8 7 7 8 8 8 7 8 7 7 8 7 8 7 7 7 5 3 2 2 -1 -1 -2 -3 -3 -2 -1
1 0 0 -2 2 3 4 6 5 6 6 5 5 6 6 6 6 6 5 6 7 7 7 6 7 7 7 8 7 7 6 6 6 1 0 -0 -1 -2 -5 -5 -5 -5 -4